Weather History for Woodward, OK

Change the Weather History Date:

Monday, January 13, 2014

  Actual Average (KGAG) Record (KGAG)
Temperature  
Mean Temperature 46 °F -  
Max Temperature 59 °F 50 °F 74 °F (1983)
Min Temperature 32 °F 18 °F -6 °F (1963)
Degree Days  
Heating Degree Days 20    
Moisture  
Dew Point 14 °F    
Average Humidity 34    
Maximum Humidity 60    
Minimum Humidity 11    
Precipitation  
Precipitation 0.11 in - - ()
Sea Level Pressure  
Sea Level Pressure 30.00 in    
Wind  
Wind Speed 11 mph (West)    
Max Wind Speed 22 mph    
Max Gust Speed 26 mph    
Visibility 10 miles    
Events      
Averages and records for this station are not official NWS values.
T = Trace of Precipitation, MM = Missing Value Source: NWS Daily Summary

Daily Weather History Graph

Daily Weather History Graph

Search for Another Location

Airport:

Trip Planner

Search our weather history database for the weather conditions in past years. The results will help you decide how hot, cold, wet, or windy it might be!

Date:

Astronomy

Jan. 13, 2014 Rise Set
Actual Time 7:49 AM CST 5:44 PM CST
Civil Twilight 7:21 AM CST 6:12 PM CST
Nautical Twilight 6:49 AM CST 6:44 PM CST
Astronomical Twilight 6:18 AM CST 7:15 PM CST
Moon 4:00 PM CST (1/13) 5:40 AM CST (1/13)
Length of Visible Light 10h 51m
Length of Day
9h 54m
Waxing Gibbous, 95% of the Moon is Illuminated
Jan 13
Waxing Gibbous
Jan 15
Full
Jan 23
Last Quarter
Jan 30
New
Feb 6
First Quarter

Hourly Weather History & Observations

Time (CST) Temp. Windchill Dew Point Humidity Pressure Visibility Wind Dir Wind Speed Gust Speed Precip Events Conditions
12:15 AM 42.8 °F 37.0 °F 28.4 °F 57% 29.89 in 10.0 mi NW 10.4 mph - N/A   Scattered Clouds
12:35 AM 42.8 °F 36.6 °F 26.6 °F 53% 29.90 in 10.0 mi WNW 11.5 mph - N/A   Scattered Clouds
12:55 AM 42.8 °F 37.0 °F 23.0 °F 46% 29.91 in 10.0 mi WNW 10.4 mph - N/A   Clear
1:15 AM 42.8 °F 36.2 °F 21.2 °F 42% 29.93 in 10.0 mi WNW 12.7 mph - N/A   Clear
1:35 AM 42.8 °F 37.0 °F 19.4 °F 39% 29.93 in 10.0 mi WNW 10.4 mph 18.4 mph N/A   Clear
1:55 AM 42.8 °F 35.4 °F 19.4 °F 39% 29.94 in 10.0 mi NW 15.0 mph - N/A   Clear
2:15 AM 42.8 °F 36.2 °F 17.6 °F 36% 29.95 in 10.0 mi WNW 12.7 mph 18.4 mph N/A   Clear
2:35 AM 41.0 °F 34.3 °F 17.6 °F 39% 29.95 in 10.0 mi WNW 11.5 mph - N/A   Clear
2:55 AM 41.0 °F 34.7 °F 19.4 °F 42% 29.96 in 10.0 mi WNW 10.4 mph - N/A   Clear
3:15 AM 39.2 °F 33.0 °F 19.4 °F 45% 29.97 in 10.0 mi WNW 9.2 mph 16.1 mph N/A   Clear
3:35 AM 37.4 °F 30.8 °F 19.4 °F 48% 29.98 in 10.0 mi WNW 9.2 mph - N/A   Clear
3:55 AM 37.4 °F 30.8 °F 19.4 °F 48% 29.98 in 10.0 mi WNW 9.2 mph - N/A   Clear
4:15 AM 37.4 °F 30.3 °F 19.4 °F 48% 29.98 in 10.0 mi WNW 10.4 mph - N/A   Clear
4:35 AM 35.6 °F 28.6 °F 19.4 °F 52% 29.99 in 10.0 mi WNW 9.2 mph - N/A   Clear
4:55 AM 35.6 °F 28.0 °F 19.4 °F 52% 29.99 in 10.0 mi WNW 10.4 mph - N/A   Clear
5:15 AM 35.6 °F 28.0 °F 19.4 °F 52% 30.00 in 10.0 mi WNW 10.4 mph 16.1 mph N/A   Clear
5:35 AM 37.4 °F 29.3 °F 19.4 °F 48% 30.00 in 10.0 mi WNW 12.7 mph - N/A   Clear
5:55 AM 35.6 °F 28.0 °F 19.4 °F 52% 30.01 in 10.0 mi WNW 10.4 mph - N/A   Clear
6:15 AM 35.6 °F 28.0 °F 19.4 °F 52% 30.02 in 10.0 mi WNW 10.4 mph - N/A   Clear
6:35 AM 33.8 °F 27.0 °F 19.4 °F 56% 30.02 in 10.0 mi WNW 8.1 mph - N/A   Clear
6:55 AM 33.8 °F 27.0 °F 19.4 °F 56% 30.02 in 10.0 mi WNW 8.1 mph - N/A   Clear
7:15 AM 33.8 °F 25.8 °F 19.4 °F 56% 30.02 in 10.0 mi WNW 10.4 mph - N/A   Clear
7:35 AM 32.0 °F 24.2 °F 19.4 °F 60% 30.03 in 10.0 mi WNW 9.2 mph - N/A   Clear
7:55 AM 32.0 °F 24.8 °F 19.4 °F 60% 30.03 in 10.0 mi WNW 8.1 mph - N/A   Clear
8:15 AM 33.8 °F 26.4 °F 19.4 °F 56% 30.04 in 10.0 mi West 9.2 mph - N/A   Clear
8:35 AM 35.6 °F 30.7 °F 19.4 °F 52% 30.05 in 10.0 mi West 5.8 mph - N/A   Clear
8:55 AM 37.4 °F 30.3 °F 19.4 °F 48% 30.06 in 10.0 mi West 10.4 mph - N/A   Clear
9:15 AM 39.2 °F 31.6 °F 17.6 °F 42% 30.07 in 10.0 mi WNW 12.7 mph - N/A   Clear
9:35 AM 41.0 °F 34.3 °F 15.8 °F 36% 30.08 in 10.0 mi West 11.5 mph - N/A   Clear
9:55 AM 42.8 °F 37.0 °F 15.8 °F 34% 30.08 in 10.0 mi WNW 10.4 mph - N/A   Clear
10:15 AM 44.6 °F 39.2 °F 15.8 °F 31% 30.08 in 10.0 mi WNW 10.4 mph - N/A   Clear
10:35 AM 46.4 °F 40.4 °F 14.0 °F 27% 30.09 in 10.0 mi WNW 13.8 mph - N/A   Clear
10:55 AM 46.4 °F 40.4 °F 14.0 °F 27% 30.09 in 10.0 mi NW 13.8 mph - N/A   Clear
11:15 AM - - - N/A% - - North - - N/A   Unknown
11:35 AM 50.0 °F - 14.0 °F 24% 30.08 in 10.0 mi WNW 9.2 mph - 0.11 in   Clear
11:55 AM 50.0 °F - 14.0 °F 24% 30.07 in 10.0 mi WNW 10.4 mph - N/A   Unknown
12:15 PM 51.8 °F - 14.0 °F 22% 30.07 in 10.0 mi WNW 12.7 mph 17.3 mph N/A   Clear
12:35 PM 51.8 °F - 14.0 °F 22% 30.06 in 10.0 mi WNW 12.7 mph 16.1 mph N/A   Clear
12:55 PM 53.6 °F - 12.2 °F 19% 30.04 in 10.0 mi WNW 11.5 mph 19.6 mph N/A   Clear
1:15 PM 53.6 °F - 12.2 °F 19% 30.03 in 10.0 mi NW 15.0 mph 24.2 mph N/A   Clear
1:35 PM 55.4 °F - 10.4 °F 17% 30.02 in 10.0 mi WNW 12.7 mph 19.6 mph N/A   Clear
1:55 PM 55.4 °F - 10.4 °F 17% 30.01 in 10.0 mi WNW 13.8 mph 18.4 mph N/A   Clear
2:15 PM 55.4 °F - 8.6 °F 15% 30.00 in 10.0 mi West 12.7 mph 23.0 mph N/A   Clear
2:35 PM 55.4 °F - 8.6 °F 15% 30.00 in 10.0 mi West 16.1 mph 23.0 mph N/A   Clear
2:55 PM 57.2 °F - 6.8 °F 13% 29.99 in 10.0 mi West 21.9 mph 25.3 mph N/A   Clear
3:15 PM 57.2 °F - 5.0 °F 12% 29.99 in 10.0 mi West 17.3 mph 25.3 mph N/A   Clear
3:35 PM 57.2 °F - 3.2 °F 11% 29.99 in 10.0 mi West 15.0 mph 23.0 mph N/A   Clear
3:55 PM 57.2 °F - 5.0 °F 12% 29.98 in 10.0 mi West 15.0 mph 26.5 mph N/A   Clear
4:15 PM 59.0 °F - 5.0 °F 12% 29.98 in 10.0 mi WSW 13.8 mph 26.5 mph N/A   Clear
4:35 PM 57.2 °F - 5.0 °F 12% 29.98 in 10.0 mi West 13.8 mph 18.4 mph N/A   Clear
4:55 PM 57.2 °F - 5.0 °F 12% 29.98 in 10.0 mi West 15.0 mph 18.4 mph N/A   Clear
5:15 PM 55.4 °F - 5.0 °F 13% 29.97 in 10.0 mi West 12.7 mph - N/A   Clear
5:35 PM 53.6 °F - 5.0 °F 14% 29.97 in 10.0 mi West 9.2 mph - N/A   Clear
5:55 PM 51.8 °F - 5.0 °F 15% 29.97 in 10.0 mi WSW 8.1 mph - N/A   Clear
6:15 PM 44.6 °F 39.7 °F 6.8 °F 21% 29.97 in 10.0 mi WSW 9.2 mph - N/A   Clear
6:35 PM 42.8 °F 37.5 °F 6.8 °F 23% 29.97 in 10.0 mi WSW 9.2 mph - N/A   Clear
6:55 PM 42.8 °F 37.5 °F 6.8 °F 23% 29.98 in 10.0 mi SW 9.2 mph - N/A   Clear
7:15 PM 41.0 °F 34.7 °F 8.6 °F 26% 29.98 in 10.0 mi SW 10.4 mph - N/A   Clear
7:35 PM 41.0 °F 34.7 °F 8.6 °F 26% 29.99 in 10.0 mi SSW 10.4 mph - N/A   Clear
7:55 PM 41.0 °F 34.7 °F 8.6 °F 26% 29.98 in 10.0 mi SW 10.4 mph - N/A   Clear
8:15 PM 39.2 °F 32.5 °F 8.6 °F 28% 29.99 in 10.0 mi SSW 10.4 mph - N/A   Clear
8:35 PM 39.2 °F 32.5 °F 8.6 °F 28% 29.98 in 10.0 mi SSW 10.4 mph - N/A   Clear
8:55 PM 39.2 °F 32.5 °F 8.6 °F 28% 29.98 in 10.0 mi SSW 10.4 mph - N/A   Clear
9:15 PM 39.2 °F 32.0 °F 10.4 °F 31% 29.99 in 10.0 mi SSW 11.5 mph - N/A   Clear
9:35 PM 37.4 °F 30.3 °F 10.4 °F 33% 29.99 in 10.0 mi SW 10.4 mph - N/A   Clear
9:55 PM 35.6 °F 28.6 °F 10.4 °F 35% 29.98 in 10.0 mi SW 9.2 mph - N/A   Clear
10:15 PM 35.6 °F 28.0 °F 10.4 °F 35% 29.99 in 10.0 mi SW 10.4 mph - N/A   Clear
10:35 PM 35.6 °F 27.5 °F 10.4 °F 35% 29.99 in 10.0 mi SW 11.5 mph - N/A   Clear
10:55 PM 35.6 °F 27.5 °F 10.4 °F 35% 29.99 in 10.0 mi SSW 11.5 mph - N/A   Clear
11:15 PM 37.4 °F 29.3 °F 10.4 °F 33% 29.98 in 10.0 mi SSW 12.7 mph - N/A   Clear
11:35 PM 37.4 °F 28.9 °F 10.4 °F 33% 29.97 in 10.0 mi SSW 13.8 mph - N/A   Clear
11:55 PM 37.4 °F 29.8 °F 10.4 °F 33% 29.97 in 10.0 mi SSW 11.5 mph - N/A   Clear